Regional Weather Roundup
Issued by NWS

Home | Current Version | Previous Version | Text Only | Print | Product List | Glossary Off
Versions: 1 2 3 4 5 6 7 8 9 10 11 12 13 14 15 16 17 18 19 20 21 22 23 24 25 26 27 28 29 30 31 32 33 34 35 36 37 38 39 40 41 42 43 44 45 46 47 48 49 50

000
ASUS44 KMEG 211900
RWRTN
TENNESSEE HOURLY STATE WEATHER ROUNDUP
NATIONAL WEATHER SERVICE MEMPHIS TN
100 PM CST TUE NOV 21 2017

TNZ002-004-019-021-049-052-054-088>092-212000-
WEST TENNESSEE

CITY           SKY/WX    TMP DP  RH WIND       PRES   REMARKS
MEMPHIS INTL   CLOUDY    60  33  36 SW8G20    30.02F
NWS MEMPHIS      N/A     59 N/A N/A MISG        N/A
JACKSON        MOSUNNY   58  34  40 SW8       30.03S
DYERSBURG      MOSUNNY   60  37  42 S7G18     30.02S
$$

TNZ008-025-027-028-033-062-065-066-212000-
NORTH MIDDLE TENNESSEE

CITY           SKY/WX    TMP DP  RH WIND       PRES   REMARKS
NASHVILLE      PTSUNNY   60  29  30 S15       30.02F
CLARKSVILLE    CLOUDY    57  30  35 SW8       30.02S
SMYRNA         SUNNY     58  30  34 S10       30.03F
CROSSVILLE     MOSUNNY   59  46  62 SW9G21    30.02F
$$

TNZ061-075-076-078-094-096-097-212000-
SOUTH MIDDLE TENNESSEE

CITY           SKY/WX    TMP DP  RH WIND       PRES   REMARKS
WINCHESTER     SUNNY     64  43  45 SW10      30.02F
$$

TNZ017-018-042-046-047-212000-
NORTHEAST TENNESSEE

CITY           SKY/WX    TMP DP  RH WIND       PRES   REMARKS
TRI CITIES     MOSUNNY   62  42  47 W7        30.04F
$$

TNZ012-013-036-069-073-074-212000-
CENTRAL EAST TENNESSEE

CITY           SKY/WX    TMP DP  RH WIND       PRES   REMARKS
KNOXVILLE      PTSUNNY   58  45  62 VRB5      30.03F
OAK RIDGE      CLOUDY    57  44  62 VRB5      30.06F
$$

TNZ083-085-099-212000-
SOUTHEAST TENNESSEE

CITY           SKY/WX    TMP DP  RH WIND       PRES   REMARKS
CHATTANOOGA    PTSUNNY   57  45  64 CALM      30.05F
$$

SKY/WX REPORTED AS FAIR MEANS FEW OR NO CLOUDS BELOW
12 THOUSAND FEET.




USA.gov is the U.S. government's official web portal to all federal, state and local government web resources and services.